• Em Portugal
  • Lista de países
  • Para 7 dias
  • Temperatura da água
  • Mapas de satélite
  • Mapa do tempo
  • Widgets de tempo
  • user-avatar
    Iniciar Sessão

    Previsão horária em Sololá

    Hoje, 24 Fevereiro, Sábado

    Tempo Temperatura Precipitação Vento Pressão Humidade
    00:00 +11°C° 0 mm 1 m/s 595 mmHg 78%
    01:00 +11°C° 0 mm 1 m/s 595 mmHg 79%
    02:00 +11°C° 0 mm 1 m/s 595 mmHg 79%
    03:00 +11°C° 0 mm 1 m/s 594 mmHg 80%
    04:00 +11°C° 0 mm 1 m/s 594 mmHg 80%
    05:00 +11°C° 0 mm 1 m/s 594 mmHg 80%
    06:00 +10°C° 0 mm 1 m/s 594 mmHg 79%
    07:00 +13°C° 0 mm 1 m/s 596 mmHg 70%
    08:00 +16°C° 0 mm 1 m/s 597 mmHg 60%
    09:00 +20°C° 0 mm 1 m/s 599 mmHg 50%
    10:00 +21°C° 0 mm 1 m/s 599 mmHg 46%
    11:00 +21°C° 0 mm 2 m/s 600 mmHg 43%
    12:00 +24°C° 0 mm 2 m/s 600 mmHg 39%
    13:00 +23°C° 0,4 mm 2 m/s 599 mmHg 43%
    14:00 +21°C° 0,4 mm 2 m/s 598 mmHg 47%
    15:00 +21°C° 0,4 mm 2 m/s 597 mmHg 52%
    16:00 +19°C° 0,7 mm 2 m/s 597 mmHg 59%
    17:00 +18°C° 0,7 mm 1 m/s 596 mmHg 66%
    18:00 +15°C° 0,7 mm 1 m/s 595 mmHg 73%
    19:00 +14°C° 0,4 mm 1 m/s 595 mmHg 75%
    20:00 +13°C° 0,4 mm 1 m/s 595 mmHg 78%
    21:00 +12°C° 0,4 mm 1 m/s 595 mmHg 80%
    22:00 +12°C° 0 mm 1 m/s 595 mmHg 79%
    23:00 +11°C° 0 mm 1 m/s 595 mmHg 78%

    Amanhã, 25 Fevereiro, Domingo

    Tempo Temperatura Precipitação Vento Pressão Humidade
    00:00 +11°C° 0 mm 1 m/s 595 mmHg 76%
    01:00 +11°C° 0 mm 1 m/s 594 mmHg 75%
    02:00 +11°C° 0 mm 1 m/s 594 mmHg 74%
    03:00 +10°C° 0 mm 1 m/s 594 mmHg 73%
    04:00 +10°C° 0 mm 1 m/s 594 mmHg 72%
    05:00 +10°C° 0 mm 1 m/s 594 mmHg 72%
    06:00 +10°C° 0 mm 1 m/s 594 mmHg 72%
    07:00 +13°C° 0 mm 1 m/s 596 mmHg 64%
    08:00 +16°C° 0 mm 1 m/s 597 mmHg 56%
    09:00 +18°C° 0 mm 0 m/s 599 mmHg 48%
    10:00 +21°C° 0 mm 1 m/s 599 mmHg 45%
    11:00 +23°C° 0 mm 1 m/s 600 mmHg 41%
    12:00 +24°C° 0 mm 2 m/s 600 mmHg 38%
    13:00 +23°C° 0,6 mm 2 m/s 599 mmHg 41%
    14:00 +23°C° 0,6 mm 2 m/s 598 mmHg 44%
    15:00 +21°C° 0,6 mm 2 m/s 597 mmHg 47%
    16:00 +19°C° 0,6 mm 2 m/s 597 mmHg 55%
    17:00 +18°C° 0,6 mm 1 m/s 596 mmHg 62%
    18:00 +15°C° 0,6 mm 1 m/s 595 mmHg 70%
    19:00 +14°C° 0,1 mm 1 m/s 595 mmHg 74%
    20:00 +13°C° 0,1 mm 1 m/s 595 mmHg 77%
    21:00 +12°C° 0,1 mm 1 m/s 595 mmHg 80%
    22:00 +12°C° 0 mm 1 m/s 595 mmHg 80%
    23:00 +11°C° 0 mm 1 m/s 595 mmHg 79%

    Depois de amanhã, 26 Fevereiro, Segunda-feira

    Tempo Temperatura Precipitação Vento Pressão Humidade
    00:00 +11°C° 0 mm 1 m/s 595 mmHg 78%
    01:00 +11°C° 0 mm 1 m/s 595 mmHg 77%
    02:00 +10°C° 0 mm 1 m/s 594 mmHg 76%
    03:00 +10°C° 0 mm 1 m/s 594 mmHg 75%
    04:00 +10°C° 0 mm 1 m/s 594 mmHg 73%
    05:00 +10°C° 0 mm 1 m/s 594 mmHg 70%
    06:00 +10°C° 0 mm 1 m/s 594 mmHg 68%
    07:00 +13°C° 0 mm 1 m/s 596 mmHg 59%
    08:00 +16°C° 0 mm 1 m/s 598 mmHg 50%
    09:00 +20°C° 0 mm 1 m/s 599 mmHg 41%
    10:00 +21°C° 0 mm 1 m/s 600 mmHg 38%
    11:00 +21°C° 0 mm 2 m/s 600 mmHg 35%
    12:00 +24°C° 0 mm 2 m/s 600 mmHg 32%
    13:00 +22°C° 0,1 mm 3 m/s 599 mmHg 35%
    14:00 +22°C° 0,1 mm 3 m/s 598 mmHg 39%
    15:00 +21°C° 0,1 mm 3 m/s 597 mmHg 42%
    16:00 +19°C° 0,2 mm 2 m/s 597 mmHg 51%
    17:00 +17°C° 0,2 mm 2 m/s 596 mmHg 60%
    18:00 +15°C° 0,2 mm 2 m/s 596 mmHg 69%
    19:00 +14°C° 0 mm 2 m/s 596 mmHg 74%
    20:00 +13°C° 0 mm 1 m/s 596 mmHg 79%
    21:00 +12°C° 0 mm 1 m/s 596 mmHg 83%
    22:00 +11°C° 0 mm 1 m/s 596 mmHg 83%
    23:00 +11°C° 0 mm 1 m/s 596 mmHg 83%

    27 Fevereiro, Terça-feira

    Tempo Temperatura Precipitação Vento Pressão Humidade
    00:00 +11°C° 0 mm 1 m/s 595 mmHg 82%
    01:00 +11°C° 0 mm 1 m/s 595 mmHg 82%
    02:00 +11°C° 0 mm 1 m/s 595 mmHg 82%
    03:00 +10°C° 0 mm 1 m/s 594 mmHg 82%
    04:00 +10°C° 0 mm 1 m/s 594 mmHg 80%
    05:00 +10°C° 0 mm 1 m/s 594 mmHg 78%
    06:00 +10°C° 0 mm 1 m/s 594 mmHg 76%
    07:00 +13°C° 0 mm 1 m/s 596 mmHg 65%
    08:00 +15°C° 0 mm 1 m/s 598 mmHg 54%
    09:00 +19°C° 0 mm 1 m/s 599 mmHg 43%
    10:00 +20°C° 0 mm 2 m/s 600 mmHg 38%
    11:00 +21°C° 0 mm 2 m/s 600 mmHg 34%
    12:00 +24°C° 0 mm 3 m/s 600 mmHg 30%
    13:00 +22°C° 0 mm 3 m/s 599 mmHg 32%
    14:00 +22°C° 0 mm 3 m/s 598 mmHg 33%
    15:00 +22°C° 0 mm 3 m/s 598 mmHg 35%
    16:00 +20°C° 0,1 mm 3 m/s 597 mmHg 45%
    17:00 +18°C° 0,1 mm 2 m/s 596 mmHg 55%
    18:00 +16°C° 0,1 mm 2 m/s 595 mmHg 66%
    19:00 +14°C° 0 mm 1 m/s 595 mmHg 71%
    20:00 +13°C° 0 mm 1 m/s 595 mmHg 77%
    21:00 +12°C° 0 mm 1 m/s 595 mmHg 83%
    22:00 +11°C° 0 mm 1 m/s 595 mmHg 82%
    23:00 +11°C° 0 mm 1 m/s 595 mmHg 82%

    28 Fevereiro, Quarta-feira

    Tempo Temperatura Precipitação Vento Pressão Humidade
    00:00 +11°C° 0 mm 1 m/s 595 mmHg 81%
    01:00 +11°C° 0 mm 1 m/s 594 mmHg 81%
    02:00 +10°C° 0 mm 1 m/s 594 mmHg 82%
    03:00 +10°C° 0 mm 1 m/s 593 mmHg 82%
    04:00 +10°C° 0 mm 1 m/s 593 mmHg 81%
    05:00 +10°C° 0 mm 1 m/s 593 mmHg 79%
    06:00 +10°C° 0 mm 1 m/s 593 mmHg 78%
    07:00 +13°C° 0 mm 1 m/s 595 mmHg 66%
    08:00 +16°C° 0 mm 1 m/s 597 mmHg 54%
    09:00 +18°C° 0 mm 0 m/s 598 mmHg 42%
    10:00 +22°C° 0 mm 1 m/s 599 mmHg 38%
    11:00 +23°C° 0 mm 1 m/s 599 mmHg 33%
    12:00 +25°C° 0 mm 2 m/s 599 mmHg 29%
    13:00 +24°C° 0 mm 2 m/s 598 mmHg 31%
    14:00 +24°C° 0 mm 2 m/s 597 mmHg 33%
    15:00 +24°C° 0 mm 2 m/s 597 mmHg 35%
    16:00 +20°C° 0 mm 2 m/s 596 mmHg 45%
    17:00 +18°C° 0 mm 2 m/s 595 mmHg 55%
    18:00 +16°C° 0 mm 1 m/s 594 mmHg 65%
    19:00 +15°C° 0 mm 1 m/s 594 mmHg 70%
    20:00 +14°C° 0 mm 1 m/s 594 mmHg 75%
    21:00 +11°C° 0 mm 0 m/s 594 mmHg 81%
    22:00 +11°C° 0 mm 0 m/s 594 mmHg 80%
    23:00 +12°C° 0 mm 1 m/s 594 mmHg 79%

    1 Março, Quinta-feira

    Tempo Temperatura Precipitação Vento Pressão Humidade
    00:00 +11°C° 0 mm 1 m/s 594 mmHg 79%
    01:00 +11°C° 0 mm 1 m/s 593 mmHg 78%
    02:00 +11°C° 0 mm 1 m/s 593 mmHg 78%
    03:00 +11°C° 0 mm 1 m/s 593 mmHg 77%
    04:00 +11°C° 0 mm 1 m/s 593 mmHg 78%
    05:00 +11°C° 0 mm 1 m/s 593 mmHg 79%
    06:00 +11°C° 0 mm 1 m/s 593 mmHg 80%
    07:00 +14°C° 0 mm 1 m/s 595 mmHg 70%
    08:00 +16°C° 0 mm 1 m/s 596 mmHg 61%
    09:00 +20°C° 0 mm 1 m/s 598 mmHg 51%
    10:00 +22°C° 0 mm 1 m/s 598 mmHg 47%
    11:00 +23°C° 0 mm 1 m/s 598 mmHg 42%
    12:00 +25°C° 0 mm 1 m/s 599 mmHg 38%
    13:00 +24°C° 0 mm 2 m/s 598 mmHg 39%
    14:00 +24°C° 0 mm 2 m/s 597 mmHg 40%
    15:00 +24°C° 0 mm 2 m/s 597 mmHg 41%
    16:00 +21°C° 0,1 mm 2 m/s 596 mmHg 49%
    17:00 +19°C° 0,1 mm 2 m/s 595 mmHg 57%
    18:00 +18°C° 0,1 mm 1 m/s 595 mmHg 65%
    19:00 +15°C° 0 mm 1 m/s 595 mmHg 69%
    20:00 +14°C° 0 mm 1 m/s 595 mmHg 74%
    21:00 +13°C° 0 mm 1 m/s 595 mmHg 78%
    22:00 +13°C° 0 mm 1 m/s 595 mmHg 77%
    23:00 +12°C° 0 mm 1 m/s 595 mmHg 76%
    Mostrar mais